1498363200.42,62758,20.56,74120.8,5.23,-27.67,-28.25,0,*7E
1498363201.62,62759,20.56,74126.5,5.19,-27.71,-28.37,0,*72
1498363202.83,62760,20.56,74122.5,5.23,-27.67,-28.31,0,*70
1498363204.08,62761,20.56,74122.8,5.21,-27.67,-28.25,0,*76
1498363205.3,62762,20.56,74124.8,5.19,-27.83,-28.53,0,*75
1498363206.54,62763,20.56,74124.8,5.21,-27.77,-28.43,0,*75
1498363207.77,62764,20.56,74120.5,5.21,-27.67,-28.31,0,*76
1498363208.98,62765,20.56,74124.0,5.19,-27.71,-28.31,0,*7B
1498363210.18,62766,20.56,74122.8,5.19,-27.67,-28.37,0,*79
1498363211.44,62767,20.56,74120.5,5.23,-27.61,-28.25,0,*74
1498363212.69,62768,20.56,74120.0,5.21,-27.67,-28.25,0,*7F
1498363213.91,62769,20.56,74122.5,5.19,-27.83,-28.37,0,*7C
1498363215.16,62770,20.56,74120.8,5.21,-27.61,-28.15,0,*73
1498363216.45,62771,20.56,74122.8,5.21,-27.61,-28.25,0,*71
1498363217.67,62772,20.56,74124.0,5.21,-27.77,-28.31,0,*70
1498363218.92,62773,20.56,74126.3,5.21,-27.67,-28.25,0,*75
1498363220.14,62774,20.56,74118.5,5.19,-27.83,-28.37,0,*70
1498363221.42,62775,20.56,74118.0,5.21,-27.61,-28.25,0,*75
1498363222.65,62776,20.56,74120.0,5.19,-27.55,-28.25,0,*7A
1498363223.9,62777,20.56,74118.0,5.21,-27.67,-28.25,0,*71
1498363225.1,62778,20.56,74116.3,5.19,-27.71,-28.37,0,*71
1498363226.35,62779,20.56,74116.3,5.21,-27.77,-28.47,0,*7A
1498363227.61,62780,20.56,74116.3,5.21,-27.83,-28.47,0,*77
1498363228.83,62781,20.56,74116.3,5.19,-27.99,-28.53,0,*73
1498363230.1,62782,20.56,74114.0,5.21,-27.83,-28.59,0,*7A
1498363231.37,62783,20.56,74112.3,5.21,-27.83,-28.43,0,*70
1498363232.62,62784,20.56,74118.8,5.19,-28.05,-28.63,0,*7F
1498363233.87,62785,20.56,74116.0,5.21,-27.77,-28.43,0,*7D
1498363235.07,62786,20.56,74118.8,5.19,-27.71,-28.31,0,*76
1498363236.29,62787,20.56,74120.5,5.19,-27.83,-28.37,0,*7C
1498363237.52,62788,20.56,74112.3,5.21,-27.77,-28.31,0,*75
1498363238.74,62789,20.56,74112.8,5.19,-27.83,-28.37,0,*72
1498363239.99,62790,20.56,74114.5,5.21,-27.67,-28.25,0,*78
1498363241.19,62791,20.56,74112.3,5.19,-27.55,-28.15,0,*70
1498363242.44,62792,20.56,74116.3,5.21,-27.55,-28.09,0,*75
1498363243.65,62793,20.56,74120.5,5.19,-27.67,-28.15,0,*73
1498363244.87,62794,20.56,74118.0,5.19,-27.55,-28.09,0,*78
1498363246.1,62795,20.56,74116.8,5.19,-27.67,-28.21,0,*72
1498363247.37,62796,20.56,74122.3,5.21,-27.45,-28.09,0,*70
1498363248.64,62797,20.56,74124.5,5.21,-27.45,-28.09,0,*71
1498363249.92,62798,20.56,74122.8,5.21,-27.61,-28.09,0,*78
1498363251.2,62799,20.56,74122.3,5.21,-27.61,-28.21,0,*73
1498363252.47,62800,20.56,74120.0,5.21,-27.39,-28.09,0,*7B
1498363253.75,62801,20.56,74120.5,5.21,-27.39,-27.99,0,*7C
1498363254.99,62802,20.56,74116.5,5.21,-27.55,-28.21,0,*79
1498363256.25,62803,20.56,74120.0,5.21,-27.67,-28.25,0,*7D
1498363257.5,62804,20.56,74120.0,5.21,-27.61,-28.15,0,*7F
1498363258.76,62805,20.56,74114.0,5.21,-27.61,-28.15,0,*7E
1498363260.01,62806,20.56,74118.5,5.21,-27.67,-28.25,0,*78
1498363261.23,62807,20.56,74116.8,5.23,-27.55,-28.09,0,*74
1498363262.48,62808,20.56,74116.5,5.23,-27.39,-28.09,0,*71
1498363263.7,62809,20.56,74116.8,5.23,-27.55,-28.09,0,*7A
1498363264.9,62810,20.56,74116.3,5.23,-27.67,-28.15,0,*7E
1498363266.1,62811,20.56,74118.8,5.29,-27.55,-28.15,0,*74
1498363267.33,62812,20.56,74116.3,5.23,-27.67,-28.25,0,*7F
1498363268.54,62813,20.56,74118.0,5.23,-27.67,-28.31,0,*7B
1498363269.74,62814,20.56,74118.8,5.23,-27.67,-28.31,0,*7C
1498363270.95,62815,20.56,74120.5,5.23,-27.67,-28.31,0,*7D
1498363272.17,62816,20.56,74122.0,5.21,-27.67,-28.31,0,*7C
1498363273.42,62817,20.56,74116.3,5.21,-27.67,-28.47,0,*7C
1498363274.64,62818,20.56,74114.8,5.23,-27.67,-28.43,0,*75
1498363275.87,62819,20.56,74116.5,5.23,-27.67,-28.43,0,*74
1498363277.09,62820,20.56,74114.8,5.23,-27.77,-28.47,0,*7B
1498363278.35,62821,20.56,74108.8,5.21,-27.83,-28.59,0,*7C
1498363279.58,62822,20.56,74114.3,5.23,-27.93,-28.59,0,*7C
1498363280.82,62823,20.56,74112.0,5.23,-27.83,-28.59,0,*7C
1498363282.07,62824,20.56,74108.8,5.21,-27.93,-28.59,0,*78
1498363283.3,62825,20.56,74110.0,5.23,-27.93,-28.63,0,*72
1498363284.55,62826,20.56,74108.3,5.21,-27.93,-28.63,0,*73
1498363285.79,62827,20.56,74110.8,5.21,-27.83,-28.69,0,*79
1498363287.01,62828,20.56,74106.8,5.19,-27.83,-28.69,0,*7D
1498363288.26,62829,20.56,74108.0,5.21,-27.93,-28.63,0,*7C
1498363289.48,62830,20.56,74106.8,5.19,-27.99,-28.69,0,*7F
1498363290.75,62831,20.56,74108.3,5.21,-27.83,-28.59,0,*7D
1498363292.0,62832,20.56,74110.5,5.19,-27.83,-28.59,0,*75
1498363293.24,62833,20.56,74108.5,5.21,-27.77,-28.63,0,*7D
1498363294.48,62834,20.56,74108.8,5.19,-27.77,-28.63,0,*71
1498363295.67,62835,20.56,74110.0,5.19,-27.71,-28.69,0,*7C
1498363296.93,62836,20.56,74112.5,5.21,-27.67,-28.63,0,*79
1498363298.18,62837,20.56,74114.0,5.19,-27.83,-28.63,0,*79
1498363299.38,62838,20.56,74118.0,5.19,-27.71,-28.69,0,*71
1498363300.6,62839,20.56,74112.3,5.21,-27.77,-28.69,0,*7D
1498363301.82,62840,20.56,74116.0,5.17,-27.89,-28.69,0,*77
1498363303.04,62841,20.56,74116.5,5.17,-27.89,-28.69,0,*76
1498363304.28,62842,20.56,74118.0,5.17,-27.83,-28.69,0,*7F
1498363305.53,62843,20.56,74116.5,5.17,-27.71,-28.63,0,*79
1498363306.8,62844,20.56,74118.0,5.17,-27.83,-28.75,0,*74
1498363308.06,62845,20.56,74122.0,5.17,-27.83,-28.75,0,*75
1498363309.3,62846,20.56,74124.5,5.17,-27.83,-28.69,0,*7B
1498363310.53,62847,20.56,74120.8,5.17,-27.71,-28.69,0,*77
1498363311.78,62848,20.56,74120.3,5.17,-27.67,-28.63,0,*75
1498363313.03,62849,20.56,74126.5,5.17,-27.71,-28.63,0,*73
1498363314.25,62850,20.56,74126.0,5.15,-27.89,-28.75,0,*79
1498363315.5,62851,20.56,74126.5,5.17,-27.71,-28.63,0,*7A
1498363316.75,62852,20.56,74130.5,5.17,-27.83,-28.69,0,*7E
1498363317.99,62853,20.56,74124.5,5.17,-27.83,-28.69,0,*7F
1498363319.24,62854,20.56,74128.0,5.17,-27.71,-28.63,0,*7F
1498363320.52,62855,20.56,74130.3,5.17,-27.83,-28.63,0,*73
1498363321.79,62856,20.56,74132.3,5.17,-27.83,-28.63,0,*70
1498363323.01,62857,20.56,74130.5,5.17,-27.71,-28.69,0,*76
1498363324.23,62858,20.56,74134.3,5.17,-27.71,-28.53,0,*70
1498363325.49,62859,20.56,74132.8,5.17,-27.61,-28.37,0,*72
1498363326.71,62860,20.56,74132.0,5.17,-27.71,-28.53,0,*7B
1498363327.96,62861,20.56,74128.0,5.17,-27.83,-28.53,0,*77
1498363329.2,62862,20.56,74124.5,5.17,-27.83,-28.53,0,*74
1498363330.43,62863,20.56,74126.3,5.15,-27.93,-28.59,0,*7C
1498363331.68,62864,20.56,74124.3,5.17,-27.99,-28.53,0,*79
1498363332.9,62865,20.56,74120.8,5.17,-27.89,-28.53,0,*79
1498363334.12,62866,20.56,74122.5,5.17,-27.89,-28.53,0,*7A
1498363335.35,62867,20.56,74124.8,5.15,-27.77,-28.59,0,*72
1498363336.63,62868,20.56,74120.5,5.17,-27.61,-28.21,0,*77
1498363337.91,62869,20.56,74118.8,5.17,-27.45,-28.21,0,*70
1498363339.14,62870,20.56,74118.5,5.17,-27.67,-28.37,0,*7F
1498363340.36,62871,20.56,74124.0,5.17,-27.67,-28.37,0,*7E
1498363341.61,62872,20.56,74120.0,5.17,-27.71,-28.47,0,*7D
1498363342.83,62873,20.56,74108.0,5.17,-27.71,-28.37,0,*7B
1498363344.09,62874,20.56,74114.8,5.17,-27.61,-28.31,0,*7B
1498363345.34,62875,20.56,74114.0,5.17,-27.71,-28.47,0,*7A
1498363346.57,62876,20.56,74116.5,5.17,-27.67,-28.31,0,*7F
1498363347.8,62877,20.56,74118.5,5.17,-27.71,-28.31,0,*79
1498363349.03,62878,20.56,74118.8,5.19,-27.61,-28.37,0,*7F
1498363350.26,62879,20.56,74122.8,5.17,-27.71,-28.31,0,*77
1498363351.52,62880,20.56,74124.0,5.17,-27.83,-28.47,0,*7D
1498363352.76,62881,20.56,74120.5,5.17,-27.67,-28.31,0,*77
1498363354.01,62882,20.56,74122.0,5.17,-27.67,-28.21,0,*75
1498363355.24,62883,20.56,74118.8,5.17,-27.67,-28.31,0,*75
1498363356.49,62884,20.56,74116.8,5.17,-27.71,-28.21,0,*74
1498363357.73,62885,20.56,74116.3,5.17,-27.67,-28.31,0,*73
1498363358.98,62886,20.56,74124.0,5.17,-27.67,-28.21,0,*71
1498363360.24,62887,20.56,74122.3,5.17,-27.61,-28.15,0,*71
1498363361.46,62888,20.56,74120.8,5.19,-27.83,-28.37,0,*7C
1498363362.67,62889,20.56,74124.5,5.19,-27.71,-28.31,0,*76
1498363363.93,62890,20.56,74126.8,5.19,-27.61,-28.21,0,*7E
1498363365.13,62891,20.56,74124.3,5.19,-27.67,-28.15,0,*7E
1498363366.41,62892,20.56,74124.0,5.21,-27.45,-27.99,0,*7D
1498363367.65,62893,20.56,74128.3,5.19,-27.61,-28.15,0,*7A
1498363368.88,62894,20.56,74126.3,5.19,-27.71,-28.21,0,*7B
1498363370.12,62895,20.56,74126.3,5.19,-27.83,-28.21,0,*77
1498363371.38,62896,20.56,74122.5,5.21,-27.67,-28.25,0,*71
1498363372.63,62897,20.56,74126.3,5.19,-27.83,-28.21,0,*75
1498363373.82,62898,20.56,74122.8,5.19,-27.89,-28.37,0,*77
1498363375.05,62899,20.56,74124.8,5.21,-27.67,-28.15,0,*7D
1498363376.28,62900,20.56,74126.3,5.19,-27.83,-28.31,0,*7B
1498363377.48,62901,20.56,74130.5,5.19,-27.71,-28.15,0,*71
1498363378.69,62902,20.56,74128.5,5.19,-27.67,-28.15,0,*75
1498363379.92,62903,20.56,74130.5,5.19,-27.71,-28.21,0,*74
1498363381.17,62904,20.56,74130.0,5.19,-27.83,-28.21,0,*7E
1498363382.4,62905,20.56,74124.0,5.21,-27.67,-28.15,0,*79
1498363383.6,62906,20.56,74124.8,5.19,-27.71,-28.15,0,*76
1498363384.83,62907,20.56,74124.3,5.21,-27.67,-28.15,0,*7B
1498363386.07,62908,20.56,74128.0,5.21,-27.83,-28.15,0,*7E
1498363387.3,62909,20.56,74126.5,5.21,-27.67,-28.15,0,*75
1498363388.58,62910,20.56,74126.8,5.21,-27.61,-28.09,0,*76
1498363389.81,62911,20.56,74126.5,5.21,-27.67,-28.15,0,*7C
1498363391.08,62912,20.56,74124.5,5.21,-27.83,-28.25,0,*76
1498363392.28,62913,20.56,74122.3,5.19,-27.89,-28.15,0,*75
1498363393.52,62914,20.56,74124.0,5.21,-27.55,-28.09,0,*75
1498363394.77,62915,20.56,74120.8,5.21,-27.55,-27.99,0,*72
1498363396.02,62916,20.56,74122.3,5.21,-27.61,-27.93,0,*7C
1498363397.27,62917,20.56,74124.0,5.21,-27.55,-27.99,0,*70
1498363398.49,62918,20.56,74122.8,5.21,-27.55,-27.93,0,*75
1498363399.76,62919,20.56,74122.3,5.21,-27.45,-27.99,0,*7F
1498363401.01,62920,20.56,74124.8,5.21,-27.67,-27.99,0,*75
1498363402.25,62921,20.56,74124.3,5.21,-27.77,-28.09,0,*73
1498363403.48,62922,20.56,74124.3,5.23,-27.67,-28.09,0,*73
1498363404.73,62923,20.56,74128.0,5.21,-27.67,-28.09,0,*70
1498363406.0,62924,20.56,74126.0,5.21,-27.61,-28.09,0,*71
1498363407.26,62925,20.56,74126.8,5.23,-27.61,-28.09,0,*72
1498363408.51,62926,20.56,74124.5,5.23,-27.61,-28.09,0,*71
1498363409.77,62927,20.56,74126.5,5.23,-27.61,-28.09,0,*70
1498363411.0,62928,20.56,74130.3,5.23,-27.61,-28.15,0,*72
1498363412.26,62929,20.56,74130.8,5.23,-27.61,-28.09,0,*7E
1498363413.49,62930,20.56,74124.5,5.23,-27.61,-28.15,0,*7B
1498363414.73,62931,20.56,74126.8,5.21,-27.55,-28.09,0,*72
1498363415.98,62932,20.56,74124.5,5.21,-27.55,-27.99,0,*77
1498363417.23,62933,20.56,74128.8,5.21,-27.45,-27.93,0,*7D
1498363418.47,62934,20.56,74126.3,5.23,-27.39,-27.83,0,*72
1498363419.69,62935,20.56,74124.0,5.23,-27.45,-27.93,0,*79
1498363420.91,62936,20.56,74124.0,5.23,-27.45,-27.77,0,*70
1498363422.13,62937,20.56,74124.0,5.25,-27.35,-27.77,0,*70
1498363423.36,62938,20.56,74124.3,5.25,-27.35,-27.89,0,*7E
1498363424.58,62939,20.56,74124.8,5.25,-27.35,-27.89,0,*7F
1498363425.81,62940,20.56,74126.5,5.25,-27.39,-27.89,0,*7D
1498363427.03,62941,20.56,74124.5,5.25,-27.35,-27.71,0,*77
1498363428.23,62942,20.56,74124.3,5.29,-27.29,-27.71,0,*75
1498363429.45,62943,20.56,74130.3,5.29,-27.35,-27.71,0,*79
1498363430.67,62944,20.56,74128.5,5.25,-27.35,-27.77,0,*74
1498363431.89,62945,20.56,74130.3,5.25,-27.35,-27.77,0,*75
1498363433.09,62946,20.56,74130.3,5.29,-27.29,-27.71,0,*71
1498363434.29,62947,20.56,74130.0,5.29,-27.29,-27.67,0,*77
1498363435.5,62948,20.56,74124.8,5.29,-27.29,-27.67,0,*78
1498363436.73,62949,20.56,74128.5,5.31,-27.29,-27.67,0,*70
1498363437.93,62950,20.56,74124.3,5.29,-27.29,-27.55,0,*70
1498363439.15,62951,20.56,74126.5,5.29,-27.19,-27.67,0,*73
1498363440.4,62952,20.56,74128.5,5.31,-27.19,-27.67,0,*79
1498363441.63,62953,20.56,74124.3,5.31,-27.29,-27.67,0,*7B
1498363442.86,62954,20.56,74128.5,5.31,-27.29,-27.71,0,*7B
1498363444.1,62955,20.56,74130.5,5.31,-27.19,-27.51,0,*7B
1498363445.32,62956,20.56,74134.3,5.31,-27.13,-27.51,0,*72
1498363446.54,62957,20.56,74130.0,5.29,-27.13,-27.45,0,*7F
1498363447.76,62958,20.56,74132.5,5.33,-27.07,-27.39,0,*75
1498363448.98,62959,20.56,74130.3,5.33,-27.07,-27.45,0,*7F
1498363450.23,62960,20.56,74130.8,5.35,-27.07,-27.45,0,*73
1498363451.48,62961,20.56,74134.3,5.35,-27.07,-27.45,0,*72
1498363452.71,62962,20.56,74128.3,5.33,-27.07,-27.39,0,*7C
1498363453.99,62963,20.56,74130.8,5.35,-26.93,-27.23,0,*7C
1498363455.25,62964,20.56,74132.8,5.35,-26.93,-27.29,0,*71
1498363456.52,62965,20.56,74132.5,5.35,-26.93,-27.39,0,*71
1498363457.78,62966,20.56,74134.0,5.35,-27.07,-27.39,0,*7E
1498363459.04,62967,20.56,74130.3,5.35,-27.07,-27.39,0,*7F
1498363460.26,62968,20.63,74134.8,5.41,-27.07,-27.45,0,*78
1498363461.48,62969,20.63,74132.3,5.37,-27.03,-27.39,0,*77
1498363462.71,62970,20.56,74130.5,5.41,-26.97,-27.29,0,*73
1498363463.97,62971,20.56,74130.8,5.37,-26.97,-27.39,0,*72
1498363465.19,62972,20.56,74128.8,5.41,-27.03,-27.35,0,*70
1498363466.43,62973,20.56,74132.5,5.41,-26.97,-27.29,0,*70
1498363467.66,62974,20.56,74132.0,5.41,-26.97,-27.29,0,*77
1498363468.91,62975,20.56,74130.3,5.41,-26.97,-27.35,0,*7B
1498363470.14,62976,20.56,74130.5,5.41,-27.07,-27.39,0,*7C
1498363471.39,62977,20.56,74130.3,5.41,-26.97,-27.39,0,*75
1498363472.62,62978,20.56,74126.8,5.41,-27.03,-27.35,0,*7A
1498363473.84,62979,20.56,74122.3,5.41,-27.03,-27.39,0,*77
1498363475.04,62980,20.56,74122.3,5.41,-27.03,-27.55,0,*7B
1498363476.29,62981,20.56,74124.8,5.43,-26.97,-27.51,0,*70
1498363477.54,62982,20.56,74118.8,5.43,-26.97,-27.51,0,*73
1498363478.76,62983,20.56,74124.0,5.41,-27.19,-27.55,0,*73
1498363480.01,62984,20.56,74120.8,5.43,-27.07,-27.61,0,*7E
1498363481.21,62985,20.56,74122.3,5.45,-27.03,-27.55,0,*7A
1498363482.42,62986,20.56,74120.5,5.45,-27.03,-27.45,0,*78
1498363483.64,62987,20.56,74116.0,5.45,-27.03,-27.45,0,*79
1498363484.84,62988,20.56,74122.3,5.45,-27.13,-27.67,0,*77
1498363486.03,62989,20.56,74116.8,5.45,-27.03,-27.55,0,*76
1498363487.26,62990,20.56,74118.8,5.45,-27.07,-27.61,0,*7D
1498363488.49,62991,20.56,74120.5,5.43,-27.13,-27.67,0,*79
1498363489.71,62992,20.56,74118.5,5.43,-27.13,-27.67,0,*7A
1498363490.91,62993,20.56,74122.8,5.45,-27.03,-27.55,0,*7D
1498363492.1,62994,20.56,74124.3,5.45,-27.03,-27.55,0,*7A
1498363493.33,62995,20.56,74124.0,5.45,-27.03,-27.61,0,*7C
1498363494.52,62996,20.56,74124.8,5.49,-27.03,-27.55,0,*74
1498363495.73,62997,20.56,74124.5,5.49,-26.87,-27.39,0,*72
1498363496.98,62998,20.56,74124.0,5.45,-26.71,-27.19,0,*7A
1498363498.22,62999,20.56,74126.3,5.49,-26.93,-27.45,0,*72
1498363499.46,63000,20.56,74118.5,5.49,-26.93,-27.45,0,*7A
1498363500.68,63001,20.56,74118.8,5.49,-27.07,-27.61,0,*71
1498363501.91,63002,20.56,74124.5,5.49,-27.07,-27.61,0,*72
1498363503.13,63003,20.56,74122.5,5.49,-27.03,-27.61,0,*77
1498363504.35,63004,20.56,74120.8,5.49,-27.07,-27.61,0,*74
1498363505.57,63005,20.56,74120.3,5.49,-27.03,-27.61,0,*71
1498363506.79,63006,20.56,74120.5,5.49,-27.07,-27.61,0,*76
1498363507.99,63007,20.56,74122.0,5.49,-27.07,-27.71,0,*76
1498363509.19,63008,20.56,74120.5,5.49,-27.07,-27.71,0,*79
1498363510.44,63009,20.56,74122.5,5.53,-26.97,-27.61,0,*7A
1498363511.66,63010,20.56,74120.3,5.51,-27.13,-27.71,0,*7C
1498363512.85,63011,20.56,74120.0,5.53,-27.13,-27.67,0,*78
1498363514.08,63012,20.56,74122.3,5.53,-27.07,-27.61,0,*78
1498363515.3,63013,20.56,74122.5,5.51,-27.13,-27.67,0,*78
1498363516.53,63014,20.56,74122.3,5.51,-27.13,-27.67,0,*7F
1498363517.75,63015,20.56,74122.0,5.51,-27.13,-27.67,0,*7E
1498363519.0,63016,20.56,74126.3,5.53,-26.97,-27.61,0,*74
1498363520.19,63017,20.56,74124.3,5.53,-27.13,-27.67,0,*7E
1498363521.46,63018,20.56,74126.5,5.51,-27.19,-27.83,0,*73
1498363522.68,63019,20.56,74126.0,5.53,-27.13,-27.83,0,*7A
1498363523.94,63020,20.56,74124.0,5.51,-27.19,-27.83,0,*78
1498363525.14,63021,20.56,74130.3,5.53,-27.07,-27.67,0,*7E
1498363526.36,63022,20.56,74130.8,5.53,-27.13,-27.83,0,*72
1498363527.63,63023,20.63,74132.0,5.51,-27.23,-27.83,0,*72
1498363528.87,63024,20.56,74132.5,5.51,-27.19,-27.89,0,*76
1498363530.12,63025,20.63,74132.8,5.51,-27.23,-27.89,0,*7E
1498363531.31,63026,20.56,74132.0,5.53,-27.07,-27.77,0,*78
1498363532.55,63027,20.56,74134.5,5.51,-27.19,-27.71,0,*72
1498363533.74,63028,20.56,74132.5,5.53,-27.13,-27.77,0,*73
1498363534.95,63029,20.56,74136.0,5.53,-27.19,-27.77,0,*78
1498363536.14,63030,20.56,74138.5,5.53,-27.13,-27.77,0,*7A
1498363537.39,63031,20.63,74138.5,5.53,-26.97,-27.61,0,*71
1498363538.64,63032,20.56,74134.0,5.53,-26.93,-27.61,0,*76
1498363539.85,63033,20.56,74132.5,5.53,-27.19,-27.67,0,*72
1498363541.06,63034,20.56,74136.8,5.53,-27.19,-27.77,0,*74
1498363542.27,63035,20.63,74132.8,5.53,-27.19,-27.67,0,*74
1498363543.49,63036,20.63,74134.0,5.53,-27.19,-27.67,0,*77
1498363544.73,63037,20.63,74132.5,5.51,-27.19,-27.71,0,*73
1498363545.94,63038,20.63,74132.5,5.53,-27.19,-27.77,0,*78
1498363547.15,63039,20.63,74132.8,5.53,-27.19,-27.77,0,*79
1498363548.35,63040,20.56,74130.0,5.53,-27.19,-27.77,0,*77
1498363549.6,63041,20.56,74132.5,5.57,-27.23,-27.77,0,*7B
1498363550.82,63042,20.63,74136.0,5.53,-27.29,-27.99,0,*76
1498363552.02,63043,20.56,74136.0,5.53,-27.29,-27.93,0,*7D
1498363553.26,63044,20.56,74138.3,5.53,-27.35,-28.09,0,*7B
1498363554.46,63045,20.63,74140.5,5.53,-27.51,-28.15,0,*75
1498363555.65,63046,20.56,74136.3,5.53,-27.51,-28.15,0,*76
1498363556.9,63047,20.63,74136.8,5.53,-27.61,-28.09,0,*79
1498363558.1,63048,20.56,74132.8,5.53,-27.67,-28.15,0,*7D
1498363559.36,63049,20.56,74132.0,5.51,-27.55,-28.21,0,*78
1498363560.55,63050,20.63,74136.0,5.53,-27.51,-28.15,0,*71
1498363561.81,63051,20.56,74132.5,5.51,-27.67,-28.25,0,*74
1498363563.06,63052,20.56,74136.3,5.51,-27.71,-28.25,0,*70
1498363564.28,63053,20.63,74136.8,5.51,-27.71,-28.37,0,*72
1498363565.5,63054,20.63,74138.5,5.53,-27.67,-28.21,0,*77
1498363566.76,63055,20.56,74134.5,5.51,-27.71,-28.25,0,*77
1498363568.01,63056,20.56,74138.3,5.51,-27.71,-28.25,0,*74
1498363569.23,63057,20.56,74136.8,5.51,-27.55,-28.15,0,*70
1498363570.46,63058,20.56,74136.5,5.51,-27.55,-28.15,0,*7F
1498363571.71,63059,20.56,74136.3,5.51,-27.55,-28.21,0,*79
1498363572.94,63060,20.56,74138.8,5.51,-27.51,-28.15,0,*70
1498363574.16,63061,20.56,74136.5,5.49,-27.55,-28.21,0,*7B
1498363575.42,63062,20.56,74132.0,5.49,-27.61,-28.21,0,*7F
1498363576.64,63063,20.63,74134.8,5.49,-27.71,-28.21,0,*7F
1498363577.84,63064,20.63,74136.3,5.49,-27.71,-28.31,0,*79
1498363579.03,63065,20.63,74136.5,5.49,-27.71,-28.31,0,*78
1498363580.23,63066,20.63,74134.8,5.49,-27.71,-28.31,0,*7B
1498363581.45,63067,20.63,74134.5,5.49,-27.71,-28.43,0,*7F
1498363582.67,63068,20.56,74130.5,5.49,-27.89,-28.47,0,*73
1498363583.88,63069,20.63,74130.3,5.45,-27.89,-28.47,0,*7E
1498363585.13,63070,20.63,74134.8,5.49,-27.61,-28.47,0,*7C
1498363586.38,63071,20.56,74132.5,5.49,-27.61,-28.43,0,*79
1498363587.63,63072,20.56,74132.3,5.49,-27.61,-28.43,0,*7A
1498363588.85,63073,20.63,74134.0,5.45,-27.71,-28.47,0,*72
1498363590.07,63074,20.63,74130.8,5.45,-27.89,-28.47,0,*72
1498363591.29,63075,20.56,74130.8,5.49,-27.77,-28.47,0,*7E
1498363592.5,63076,20.56,74128.5,5.45,-27.71,-28.47,0,*77
1498363593.72,63077,20.63,74130.0,5.49,-27.71,-28.47,0,*7A
1498363594.92,63078,20.63,74132.3,5.49,-27.71,-28.31,0,*74
1498363596.17,63079,20.56,74128.5,5.45,-27.61,-28.47,0,*79
1498363597.42,63080,20.56,74134.3,5.45,-27.61,-28.43,0,*7B
1498363598.64,63081,20.56,74130.8,5.45,-27.71,-28.43,0,*7B
1498363599.86,63082,20.56,74130.0,5.45,-27.71,-28.43,0,*78
1498363601.08,63083,20.56,74130.8,5.45,-27.77,-28.47,0,*7B
1498363602.3,63084,20.56,74128.8,5.45,-27.89,-28.47,0,*7D
1498363603.52,63085,20.63,74128.8,5.45,-27.89,-28.47,0,*7C
1498363604.72,63086,20.63,74128.0,5.49,-27.71,-28.31,0,*75
1498363605.93,63087,20.63,74126.8,5.45,-27.89,-28.47,0,*7E
1498363607.15,63088,20.63,74128.0,5.45,-27.77,-28.43,0,*74
1498363608.4,63089,20.63,74128.0,5.43,-27.83,-28.37,0,*7B
1498363609.63,63090,20.63,74124.0,5.43,-27.77,-28.31,0,*7E
1498363610.85,63091,20.56,74118.8,5.45,-27.77,-28.25,0,*7C
1498363612.1,63092,20.63,74122.3,5.43,-27.83,-28.31,0,*77
1498363613.38,63093,20.63,74122.3,5.43,-27.83,-28.25,0,*73
1498363614.57,63094,20.63,74126.3,5.41,-27.67,-28.37,0,*7F
1498363615.81,63095,20.63,74126.3,5.43,-27.93,-28.31,0,*71
1498363617.06,63096,20.56,74126.3,5.43,-27.93,-28.25,0,*77
1498363618.3,63097,20.63,74126.5,5.43,-27.93,-28.47,0,*72
1498363619.53,63098,20.63,74124.5,5.43,-27.93,-28.37,0,*7A
1498363620.75,63099,20.63,74126.8,5.43,-27.93,-28.37,0,*7B
1498363622.0,63100,20.56,74122.3,5.43,-27.93,-28.47,0,*7D
1498363623.25,63101,20.63,74128.3,5.43,-27.93,-28.47,0,*7C
1498363624.47,63102,20.56,74122.8,5.43,-27.93,-28.37,0,*78
1498363625.72,63103,20.63,74128.3,5.41,-27.99,-28.47,0,*76
1498363626.97,63104,20.63,74128.3,5.43,-28.09,-28.37,0,*72
1498363628.19,63105,20.63,74128.3,5.41,-27.99,-28.37,0,*77
1498363629.38,63106,20.63,74126.5,5.41,-28.15,-28.37,0,*7F
1498363630.63,63107,20.63,74126.8,5.43,-27.99,-28.31,0,*71
1498363631.89,63108,20.63,74124.3,5.43,-27.99,-28.15,0,*78
1498363633.14,63109,20.56,74120.8,5.43,-27.93,-28.09,0,*7E
1498363634.39,63110,20.63,74130.0,5.43,-27.93,-27.99,0,*70
1498363635.66,63111,20.63,74126.3,5.43,-27.99,-28.09,0,*7D
1498363636.91,63112,20.63,74124.5,5.41,-28.05,-28.05,0,*7A
1498363638.14,63113,20.56,74120.5,5.41,-28.15,-28.05,0,*7A
1498363639.39,63114,20.63,74122.3,5.41,-28.05,-27.99,0,*76
1498363640.61,63115,20.63,74124.5,5.41,-27.99,-27.71,0,*7B
1498363641.84,63116,20.63,74122.8,5.43,-27.93,-27.67,0,*77
1498363643.04,63117,20.63,74126.8,5.41,-27.89,-27.71,0,*78
1498363644.26,63118,20.63,74124.0,5.43,-27.93,-27.67,0,*79
1498363645.52,63119,20.63,74126.8,5.43,-27.93,-27.61,0,*7E
1498363646.71,63120,20.63,74126.5,5.41,-27.89,-27.67,0,*7B
1498363647.91,63121,20.56,74124.5,5.41,-27.89,-27.71,0,*7D
1498363649.13,63122,20.56,74126.3,5.41,-27.99,-27.51,0,*7D
1498363650.35,63123,20.63,74128.8,5.41,-27.99,-27.55,0,*78
1498363651.57,63124,20.63,74128.8,5.41,-27.89,-27.39,0,*74
1498363652.8,63125,20.63,74130.0,5.41,-27.89,-27.35,0,*79
1498363654.02,63126,20.63,74128.0,5.41,-27.71,-27.19,0,*73
1498363655.22,63127,20.63,74130.3,5.41,-27.89,-27.29,0,*76
1498363656.44,63128,20.63,74130.3,5.41,-27.83,-27.03,0,*7B
1498363657.64,63129,20.63,74130.5,5.41,-27.71,-27.03,0,*77
1498363658.86,63130,20.63,74132.5,5.41,-27.67,-26.97,0,*74
1498363660.06,63131,20.63,74130.0,5.41,-27.71,-26.87,0,*73
1498363661.26,63132,20.56,74126.3,5.41,-27.55,-26.87,0,*76
1498363662.46,63133,20.63,74128.3,5.41,-27.67,-26.87,0,*76
1498363663.66,63134,20.63,74128.3,5.41,-27.67,-26.87,0,*71
1498363664.87,63135,20.63,74124.0,5.41,-27.55,-26.71,0,*78
1498363666.11,63136,20.63,74128.0,5.37,-27.61,-26.87,0,*74
1498363667.33,63137,20.63,74130.0,5.41,-27.67,-26.81,0,*74
1498363668.55,63138,20.63,74124.3,5.41,-27.71,-26.71,0,*73
1498363669.77,63139,20.56,74122.8,5.41,-27.71,-26.71,0,*72
1498363670.99,63140,20.63,74124.0,5.41,-27.55,-26.71,0,*7A
1498363672.21,63141,20.63,74122.3,5.41,-27.55,-26.81,0,*74
1498363673.43,63142,20.63,74126.3,5.41,-27.51,-26.71,0,*7C
1498363674.67,63143,20.63,74124.3,5.41,-27.35,-26.71,0,*7F
1498363675.9,63144,20.63,74126.0,5.41,-27.13,-26.81,0,*73
1498363677.1,63145,20.63,74122.3,5.37,-27.07,-26.87,0,*70
1498363678.32,63146,20.63,74124.0,5.41,-26.87,-26.97,0,*7A
1498363679.57,63147,20.63,74126.5,5.37,-26.81,-26.93,0,*78
1498363680.8,63148,20.63,74126.5,5.37,-26.71,-27.07,0,*74
1498363682.02,63149,20.63,74132.0,5.37,-26.55,-27.07,0,*73
1498363683.24,63150,20.63,74128.5,5.41,-26.39,-27.35,0,*71
1498363684.47,63151,20.63,74130.8,5.41,-26.49,-27.39,0,*7B
1498363685.67,63152,20.63,74132.5,5.41,-26.65,-27.55,0,*7C
1498363686.89,63153,20.63,74128.5,5.41,-26.71,-27.71,0,*7E
1498363688.11,63154,20.63,74134.8,5.37,-26.71,-27.93,0,*74
1498363689.36,63155,20.63,74130.0,5.41,-26.71,-28.05,0,*74
1498363690.61,63156,20.63,74128.5,5.41,-26.97,-28.05,0,*7F
1498363691.81,63157,20.63,74130.0,5.41,-26.87,-28.15,0,*7E
1498363693.01,63158,20.63,74126.0,5.41,-26.87,-28.15,0,*71
1498363694.23,63159,20.63,74128.3,5.41,-26.87,-27.99,0,*7B
1498363695.45,63160,20.63,74126.0,5.41,-26.87,-28.05,0,*7B
1498363696.65,63161,20.63,74128.0,5.41,-27.03,-28.31,0,*70
1498363697.89,63162,20.63,74126.3,5.41,-27.19,-28.43,0,*7D
1498363699.11,63163,20.63,74128.0,5.41,-27.19,-28.53,0,*7D
1498363700.36,63164,20.63,74124.0,5.37,-27.35,-28.59,0,*7F